[[{"header":{"parameterUnit":"m.s-1","parameterCategory":1,"la1":30.2991,"la2":30.254,"lo1":-89.0895,"lo2":-89.0444,"dy":0.0017,"dx":0.0017,"nx":28,"ny":28,"refTime":"2023-07-30T03:00:00:Z","depth":0,"parameterNumber":2,"parameterNumberName":"U-component_of_WINDS"},"data":[0,0,0,0,0,0,0,0,0,0,0,0,0,0,0,0,0,0,0,0,0,0,0,0,0,0,0,0,0,0,0,0,0,0,0,0,0,0,0,0,0,0,0,0,0,0,0,0,0,0,0,0,0,0,0,0,0,0,2.5774,2.5775,0,2.5886,2.5887,2.5888,2.5873,2.5871,2.5869,2.5867,2.5984,2.5988,2.5993,0,0,0,0,0,0,0,0,0,0,0,0,0,2.5547,2.5551,2.5774,2.5775,2.5776,2.5886,2.5887,2.5889,2.5873,2.5871,2.5869,2.5867,2.5982,2.5988,2.5994,0,0,0,0,0,0,0,0,0,0,0,0,0,2.5651,2.5552,2.5773,2.5782,2.5784,2.5885,2.5887,2.5889,2.5874,2.5871,2.5868,2.5865,2.598,2.5987,2.5994,2.6095,0,0,2.6017,2.602,0,0,0,0,0,0,0,0,2.5645,2.5659,2.5779,2.5781,2.5784,2.5862,2.585,2.5958,2.5874,2.584,2.5867,2.5864,2.5946,2.5956,2.5983,2.6101,2.6106,2.6017,2.6022,2.6025,2.6027,0,0,0,0,0,0,0,2.5638,2.5654,2.5818,2.5781,2.5784,2.578,2.5792,2.587,2.5907,2.5842,2.5842,2.5855,2.5946,2.5976,2.5986,2.6107,2.6017,2.6024,2.6028,2.6031,2.6312,2.6315,0,0,0,0,0,0,2.5628,2.5648,2.5814,2.5821,2.5706,2.5787,2.58,2.584,2.5906,2.5913,2.5857,2.5854,2.5965,2.5977,2.599,2.6111,2.6025,2.6032,2.6036,2.6309,2.6313,2.6316,0,0,0,0,0,0,2.5623,2.5643,2.581,2.5735,2.5756,2.5793,2.5839,2.5844,2.5873,2.5917,2.5924,2.5881,2.5963,2.5979,2.6069,2.6115,2.6035,2.6041,2.6306,2.631,2.6315,2.6355,0,0,0,0,0,0,2.5617,2.5641,2.568,2.5736,2.576,2.5887,2.5842,2.5848,2.5886,2.5882,2.5941,2.5948,2.5962,2.6058,2.6076,2.6123,2.6047,2.6302,2.6308,2.6313,2.635,2.6361,2.637,0,0,0,0,0,2.5609,2.5688,2.5682,2.5702,2.5809,2.589,2.5904,2.5918,2.5889,2.5928,2.5957,2.5946,2.6107,2.6067,2.6087,2.6138,2.6299,2.6306,2.6313,2.6345,2.6358,2.637,0,0,0,0,0,0,2.5637,2.5695,2.569,2.5789,2.5834,2.5887,2.5937,2.5932,2.5987,2.5982,2.5997,2.6011,2.6101,2.6128,2.6083,2.6238,2.6199,2.621,2.6217,2.623,2.6239,2.6231,2.6053,0,0,0,0,0,2.5655,2.5716,2.5763,2.5846,2.5869,2.5899,2.5935,2.5942,2.599,2.601,2.6044,2.6092,2.6153,2.6193,2.6252,2.6354,2.6366,2.6398,2.6408,2.6416,2.6426,2.6481,2.6495,2.634,2.6339,2.6339,0,0,2.5693,2.5732,2.5769,2.5853,2.5889,2.5951,2.5916,2.5984,2.603,2.602,2.6106,2.6133,2.6187,2.6283,2.6327,2.6309,2.6471,2.6425,2.6431,2.6436,2.6489,2.6504,2.6517,2.6344,2.6343,2.6343,0,0,2.5793,2.5829,2.5901,2.5938,2.5992,2.6012,2.6029,2.6082,2.61,2.6186,2.618,2.6235,2.6341,2.6379,2.6412,2.6525,2.6517,2.6544,2.6596,2.665,2.6662,2.6673,2.6712,2.6726,2.6554,2.6554,2.6554,0,2.5832,2.5926,2.5939,2.6007,2.6044,2.6037,2.611,2.6145,2.6217,2.6242,2.6221,2.6351,2.6387,2.6491,2.6519,2.6547,2.6566,2.6537,2.6659,2.667,2.668,2.6718,2.6733,2.6557,2.6556,2.6556,2.6556,0,2.5972,2.6037,2.6089,2.6156,2.6199,2.627,2.6293,2.6335,2.6338,2.6359,2.6447,2.649,2.6556,2.6582,2.6586,2.6686,2.6673,2.6655,2.6616,2.6698,2.6733,2.6748,2.6561,2.656,2.6559,2.6558,0,0,2.6094,2.6167,2.6186,2.6216,2.6275,2.6326,2.6396,2.646,2.6495,2.6544,2.6603,2.6691,2.6675,2.6713,2.6721,2.6768,2.6853,2.6744,2.6746,2.6762,2.6966,2.6978,2.6995,2.6849,2.6852,2.6854,2.6961,0,2.6199,2.6321,2.6334,2.6444,2.6504,2.6497,2.6558,2.6601,2.6623,2.6677,2.6701,2.6763,2.6737,2.6759,2.6806,2.6833,2.6894,2.6826,2.6903,2.6906,2.6889,2.7014,2.7027,2.7126,2.6975,2.6977,2.6979,0,2.6338,2.639,2.6505,2.6555,2.658,2.6635,2.6694,2.6746,2.6794,2.6807,2.6848,2.685,2.6922,2.688,2.6979,2.6932,2.6965,2.6983,2.6987,2.6994,2.6947,2.7024,2.7158,2.7173,2.7001,2.7,2.6998,0,2.6414,2.6513,2.6594,2.6621,2.6681,2.6719,2.6746,2.6792,2.6829,2.6881,2.6905,2.6966,2.6998,2.7045,2.7063,2.7031,2.7161,2.7121,2.7173,2.7172,2.72,2.7198,2.7341,2.7222,2.7222,2.7222,2.7222,0,2.653,2.66,2.6629,2.6679,2.6758,2.6772,2.685,2.6875,2.6915,2.697,2.6969,2.702,2.7041,2.7096,2.7111,2.719,2.7205,2.7217,2.722,2.7217,2.7215,2.7238,2.7231,2.7226,2.7225,2.7224,2.7224,0,2.6628,2.6651,2.6739,2.6788,2.6802,2.6857,2.69,2.6948,2.6968,2.7038,2.7055,2.7087,2.7152,2.7174,2.7253,2.7263,2.7354,2.7352,2.7338,2.7338,2.7389,2.7383,2.7551,2.7574,2.744,2.7442,2.7443,0,2.6701,2.6754,2.6809,2.6845,2.6873,2.6931,2.6969,2.6985,2.7024,2.7083,2.7124,2.7187,2.7239,2.7342,2.7373,2.7433,2.7432,2.7486,2.7441,2.7435,2.7432,2.7428,2.7433,2.7495,2.7496,2.7497,2.7498,0,2.6826,2.6834,2.6888,2.6945,2.699,2.7037,2.7082,2.7111,2.7134,2.7178,2.7243,2.7283,2.7362,2.7426,2.7486,2.7514,2.751,2.7512,2.7527,2.7524,2.7513,2.7519,2.736,2.7508,2.7507,2.7506,2.7506,2.7505,2.6913,2.696,2.7005,2.7065,2.71,2.7142,2.7189,2.7215,2.7269,2.7334,2.734,2.741,2.7457,2.7538,2.7568,2.7624,2.7608,2.7631,2.7636,2.7641,2.7644,2.7505,2.7635,2.7635,2.7634,2.7634,2.7634,0,2.7038,2.7066,2.7121,2.7183,2.723,2.7221,2.7269,2.7309,2.7371,2.7414,2.7464,2.7538,2.7599,2.7634,2.7695,2.7732,2.7732,2.7748,2.7745,2.7751,2.7655,2.7635,2.7747,2.7747,2.7747,2.7747,2.7747,2.7747,2.7109,2.7187,2.72,2.7296,2.7324,2.7391,2.742,2.7458,2.7492,2.7575,2.7625,2.7647,2.7686,2.775,2.7805,2.7814,2.7836,2.7854,2.7861,2.777,2.7758,2.7747,2.7729,2.7858,2.7859,2.7953,2.7953,2.7954]},{"header":{"parameterUnit":"m.s-1","parameterCategory":1,"la1":30.2991,"la2":30.254,"lo1":-89.0895,"lo2":-89.0444,"dy":0.0017,"dx":0.0017,"nx":28,"ny":28,"refTime":"2023-07-30T03:00:00:Z","depth":0,"parameterNumber":3,"parameterNumberName":"V-component_of_WINDS"},"data":[0,0,0,0,0,0,0,0,0,0,0,0,0,0,0,0,0,0,0,0,0,0,0,0,0,0,0,0,0,0,0,0,0,0,0,0,0,0,0,0,0,0,0,0,0,0,0,0,0,0,0,0,0,0,0,0,0,0,1.445,1.4451,0,1.447,1.447,1.447,1.4455,1.4454,1.4454,1.4453,1.4471,1.4472,1.4473,0,0,0,0,0,0,0,0,0,0,0,0,0,1.4397,1.4399,1.445,1.4451,1.4451,1.447,1.447,1.447,1.4455,1.4454,1.4453,1.4453,1.4471,1.4472,1.4473,0,0,0,0,0,0,0,0,0,0,0,0,0,1.4419,1.4399,1.445,1.4446,1.4445,1.447,1.447,1.447,1.4455,1.4454,1.4453,1.4452,1.447,1.4472,1.4473,1.4503,0,0,1.4478,1.4479,0,0,0,0,0,0,0,0,1.4418,1.4421,1.4446,1.4446,1.4446,1.4459,1.4458,1.4481,1.4455,1.4451,1.4453,1.4452,1.4468,1.4469,1.4475,1.4504,1.4505,1.4479,1.448,1.448,1.4481,0,0,0,0,0,0,0,1.4416,1.442,1.4458,1.4446,1.4446,1.4442,1.4444,1.4462,1.4465,1.4452,1.4451,1.4453,1.4467,1.4474,1.4475,1.4505,1.4479,1.448,1.4481,1.4482,1.4558,1.4559,0,0,0,0,0,0,1.4416,1.4419,1.4457,1.4459,1.4429,1.4443,1.4446,1.4456,1.4464,1.4465,1.4454,1.4452,1.4471,1.4474,1.4476,1.4511,1.448,1.4482,1.4483,1.4557,1.4558,1.4559,0,0,0,0,0,0,1.4415,1.4419,1.4457,1.4438,1.4443,1.4445,1.4457,1.4457,1.4463,1.4466,1.4466,1.446,1.4471,1.4474,1.4496,1.4511,1.4483,1.4484,1.4555,1.4557,1.4559,1.458,0,0,0,0,0,0,1.4413,1.4419,1.4431,1.4439,1.4444,1.4477,1.4458,1.4458,1.4466,1.4464,1.4472,1.4472,1.447,1.4494,1.4498,1.4513,1.4485,1.4554,1.4556,1.4558,1.4578,1.4583,1.4586,0,0,0,0,0,1.4411,1.4436,1.4432,1.4436,1.4459,1.4478,1.4481,1.4478,1.4467,1.4479,1.4481,1.4472,1.4509,1.4496,1.4501,1.4516,1.4553,1.4556,1.4558,1.4577,1.4582,1.4586,0,0,0,0,0,0,1.443,1.4437,1.4432,1.4461,1.4469,1.4476,1.449,1.4484,1.4495,1.4493,1.4489,1.4491,1.4514,1.4517,1.4504,1.4545,1.4529,1.4532,1.4542,1.4547,1.4551,1.4549,1.4487,0,0,0,0,0,1.4437,1.4453,1.4458,1.4483,1.4487,1.4488,1.4496,1.4493,1.4502,1.4505,1.4509,1.4516,1.453,1.4538,1.4551,1.4579,1.458,1.4592,1.4595,1.4599,1.4601,1.4615,1.462,1.4567,1.4567,1.4567,0,0,1.4452,1.4458,1.4469,1.4486,1.4493,1.4508,1.4491,1.4508,1.4519,1.4507,1.4529,1.4532,1.454,1.4565,1.4577,1.4569,1.4616,1.4601,1.4604,1.4605,1.4618,1.4623,1.4628,1.4568,1.4568,1.4568,0,0,1.4488,1.4495,1.4515,1.4522,1.4531,1.4532,1.4536,1.4544,1.4546,1.4567,1.4558,1.4571,1.4594,1.46,1.4606,1.4643,1.4635,1.4647,1.4667,1.4681,1.4685,1.4689,1.4701,1.4706,1.465,1.465,1.465,0,1.4506,1.4529,1.4527,1.4544,1.4552,1.4542,1.4562,1.4568,1.4581,1.4586,1.4578,1.4606,1.4611,1.4637,1.4646,1.4651,1.4656,1.4646,1.4685,1.4688,1.4692,1.4704,1.4708,1.4651,1.4651,1.4651,1.4651,0,1.455,1.4567,1.4582,1.4595,1.4604,1.4623,1.4622,1.4632,1.4628,1.4629,1.465,1.4656,1.4669,1.4675,1.4671,1.47,1.4695,1.4685,1.4669,1.4698,1.4709,1.4714,1.4653,1.4653,1.4652,1.4652,0,0,1.4598,1.4609,1.4615,1.462,1.4629,1.4642,1.4659,1.4672,1.468,1.4689,1.4704,1.4723,1.4714,1.4721,1.4718,1.473,1.4758,1.4719,1.4719,1.4725,1.4789,1.4795,1.4801,1.4753,1.4754,1.4754,1.4788,0,1.4634,1.4666,1.4663,1.4693,1.4707,1.4698,1.4713,1.472,1.4721,1.4733,1.4734,1.4747,1.4735,1.4739,1.4751,1.4752,1.477,1.475,1.4765,1.4766,1.4763,1.4807,1.4814,1.4845,1.4792,1.4793,1.4793,0,1.468,1.4691,1.4722,1.4728,1.4734,1.4748,1.4759,1.4771,1.4778,1.4778,1.4785,1.478,1.4797,1.4781,1.4803,1.4789,1.4796,1.4797,1.4798,1.4799,1.4781,1.4808,1.4855,1.486,1.48,1.48,1.4799,0,1.4711,1.4733,1.4754,1.4759,1.4767,1.4777,1.4781,1.4787,1.4795,1.4804,1.4809,1.482,1.4826,1.4835,1.4832,1.4821,1.4855,1.4839,1.4855,1.4855,1.4862,1.4862,1.491,1.4867,1.4867,1.4867,1.4867,0,1.4751,1.477,1.4768,1.4782,1.4802,1.4799,1.4819,1.4822,1.4827,1.484,1.4832,1.4844,1.484,1.4851,1.4849,1.4868,1.4871,1.4871,1.487,1.4871,1.4871,1.4875,1.4872,1.4868,1.4868,1.4868,1.4867,0,1.4789,1.4789,1.4811,1.4817,1.4819,1.4834,1.4838,1.485,1.485,1.4866,1.487,1.487,1.4883,1.4881,1.4896,1.4894,1.4917,1.4914,1.4915,1.4914,1.4929,1.4928,1.4982,1.4988,1.4941,1.4942,1.4942,0,1.4814,1.4829,1.4836,1.4844,1.4848,1.4861,1.4869,1.4866,1.4874,1.4883,1.4893,1.4905,1.4915,1.4936,1.4937,1.4948,1.4944,1.4962,1.4946,1.4946,1.4944,1.4943,1.4944,1.4966,1.4966,1.4967,1.4967,0,1.4859,1.4858,1.4869,1.488,1.489,1.4898,1.4906,1.4913,1.491,1.492,1.4933,1.4941,1.4955,1.4967,1.4977,1.498,1.4973,1.4972,1.4976,1.4978,1.4977,1.4977,1.4923,1.4971,1.4971,1.497,1.497,1.497,1.4891,1.4903,1.4909,1.4922,1.4928,1.4935,1.4946,1.4947,1.4959,1.497,1.4968,1.4982,1.4988,1.5001,1.5005,1.5016,1.5009,1.5015,1.5016,1.5018,1.5019,1.4976,1.5017,1.5017,1.5017,1.5017,1.5017,0,1.4934,1.4937,1.4949,1.496,1.497,1.4963,1.4971,1.4979,1.4993,1.4999,1.5008,1.5023,1.5034,1.5036,1.5047,1.5055,1.5052,1.5058,1.5057,1.5058,1.5025,1.502,1.506,1.506,1.506,1.506,1.506,1.506,1.4957,1.4977,1.4977,1.4999,1.5002,1.5017,1.5022,1.5028,1.5033,1.505,1.5059,1.506,1.5064,1.5075,1.5085,1.5085,1.5089,1.5096,1.5095,1.5064,1.506,1.5056,1.5051,1.5097,1.5097,1.5126,1.5127,1.5127]}]]